| time (UTC) | temp C | wind direction | speed KPH | gust KPH | rain 1hr cm | rain 24hr cm | rain mn cm | humidity % | barometer mb |
| 20260506002223 | 9 | 103 | 6.4 | 9.7 | 0.00 | 3.02 | 3.02 | 90 | 1010.5 |
| 20260506001719 | 9 | 82 | 8.0 | 8.0 | 0.00 | 3.02 | 3.02 | 90 | 1010.2 |
| 20260506001217 | 9 | 304 | 4.8 | 9.7 | 0.00 | 3.02 | 3.02 | 90 | 1010.2 |
| 20260506000713 | 9 | 59 | 1.6 | 4.8 | 0.00 | 3.02 | 3.02 | 90 | 1010.2 |
| 20260506000212 | 9 | 102 | 3.2 | 8.0 | 0.00 | 3.02 | 3.02 | 90 | 1010.4 |
| 20260505235708 | 10 | 58 | 3.2 | 6.4 | 0.00 | 3.02 | 3.02 | 90 | 1010.0 |
| 20260505235206 | 10 | 58 | 3.2 | 6.4 | 0.00 | 3.02 | 3.02 | 90 | 1010.0 |
| 20260505234703 | 10 | 64 | 3.2 | 8.0 | 0.00 | 3.02 | 3.02 | 90 | 1009.9 |
| 20260505234200 | 10 | 59 | 3.2 | 6.4 | 0.00 | 3.02 | 3.02 | 90 | 1009.9 |
| 20260505233656 | 10 | 86 | 4.8 | 4.8 | 0.00 | 3.02 | 3.02 | 90 | 1009.7 |
| 20260505233154 | 10 | 338 | 1.6 | 4.8 | 0.00 | 3.02 | 3.02 | 89 | 1009.9 |
| 20260505232652 | 10 | 70 | 3.2 | 14.5 | 0.00 | 3.02 | 3.02 | 89 | 1009.7 |
| 20260505232149 | 10 | 336 | 6.4 | 9.7 | 0.00 | 3.02 | 3.02 | 89 | 1009.6 |
| 20260505231645 | 10 | 123 | 6.4 | 8.0 | 0.00 | 3.02 | 3.02 | 89 | 1009.8 |
| 20260505231145 | 10 | 107 | 0.0 | 8.0 | 0.00 | 3.02 | 3.02 | 89 | 1009.8 |
| 20260505230642 | 10 | 40 | 1.6 | 6.4 | 0.00 | 3.02 | 3.02 | 90 | 1009.6 |
| 20260505230138 | 10 | 294 | 1.6 | 6.4 | 0.00 | 3.02 | 3.02 | 91 | 1009.3 |
| 20260505225634 | 10 | 68 | 1.6 | 4.8 | 0.00 | 3.02 | 3.02 | 91 | 1009.0 |
| 20260505225131 | 10 | 68 | 1.6 | 4.8 | 0.00 | 3.02 | 3.02 | 91 | 1009.0 |
| 20260505224627 | 10 | 53 | 3.2 | 6.4 | 0.00 | 3.02 | 3.02 | 91 | 1008.7 |
| 20260505224125 | 10 | 318 | 4.8 | 6.4 | 0.00 | 3.02 | 3.02 | 91 | 1009.0 |
| 20260505223622 | 10 | 32 | 4.8 | 6.4 | 0.00 | 3.02 | 3.02 | 91 | 1009.0 |
| 20260505223118 | 11 | 35 | 6.4 | 8.0 | 0.00 | 3.02 | 3.02 | 91 | 1009.1 |
| 20260505222615 | 11 | 105 | 6.4 | 6.4 | 0.00 | 3.02 | 3.02 | 90 | 1009.1 |
| 20260505222111 | 11 | 67 | 3.2 | 9.7 | 0.00 | 3.02 | 3.02 | 90 | 1008.8 |
| 20260505221608 | 11 | 31 | 1.6 | 4.8 | 0.00 | 3.02 | 3.02 | 90 | 1008.7 |
| 20260505221104 | 11 | 335 | 3.2 | 8.0 | 0.00 | 3.02 | 3.02 | 90 | 1008.5 |
| 20260505220602 | 11 | 51 | 3.2 | 8.0 | 0.00 | 3.02 | 3.02 | 90 | 1008.7 |
| 20260505220100 | 11 | 336 | 0.0 | 8.0 | 0.00 | 3.02 | 3.02 | 89 | 1008.4 |
| 20260505215557 | 11 | 333 | 3.2 | 6.4 | 0.00 | 3.02 | 3.02 | 89 | 1008.1 |
| 20260505215055 | 11 | 93 | 3.2 | 6.4 | 0.00 | 3.02 | 3.02 | 89 | 1008.5 |
| 20260505214553 | 11 | 93 | 3.2 | 6.4 | 0.00 | 3.02 | 3.02 | 89 | 1008.5 |
| 20260505214050 | 11 | 51 | 0.0 | 8.0 | 0.00 | 3.02 | 3.02 | 89 | 1008.4 |
| 20260505213548 | 12 | 98 | 6.4 | 6.4 | 0.00 | 3.02 | 3.02 | 89 | 1008.7 |
| 20260505213043 | 12 | 340 | 1.6 | 6.4 | 0.00 | 3.02 | 3.02 | 88 | 1008.9 |
| 20260505212540 | 12 | 125 | 3.2 | 9.7 | 0.00 | 3.02 | 3.02 | 88 | 1008.7 |
| 20260505212038 | 12 | 30 | 3.2 | 6.4 | 0.00 | 3.02 | 3.02 | 88 | 1008.2 |
| 20260505211534 | 12 | 316 | 4.8 | 6.4 | 0.00 | 3.02 | 3.02 | 88 | 1008.2 |
| 20260505211031 | 12 | 202 | 3.2 | 6.4 | 0.00 | 3.02 | 3.02 | 89 | 1008.1 |
| 20260505210528 | 12 | 63 | 0.0 | 4.8 | 0.00 | 3.02 | 3.02 | 89 | 1008.1 |
| 20260505210025 | 12 | 230 | 3.2 | 4.8 | 0.00 | 3.02 | 3.02 | 89 | 1008.3 |
| 20260505205523 | 12 | 243 | 3.2 | 6.4 | 0.00 | 3.02 | 3.02 | 89 | 1008.2 |
| 20260505205020 | 13 | 347 | 0.0 | 12.9 | 0.00 | 3.02 | 3.02 | 89 | 1008.0 |
| 20260505204518 | 13 | 64 | 3.2 | 12.9 | 0.00 | 3.02 | 3.02 | 89 | 1008.1 |
| 20260505204015 | 13 | 102 | 3.2 | 6.4 | 0.00 | 3.02 | 3.02 | 89 | 1008.1 |
| 20260505203511 | 13 | 1 | 1.6 | 6.4 | 0.00 | 3.02 | 3.02 | 89 | 1008.1 |
| 20260505203008 | 13 | 2 | 3.2 | 6.4 | 0.00 | 3.02 | 3.02 | 89 | 1008.2 |
| 20260505202504 | 13 | 217 | 4.8 | 6.4 | 0.00 | 3.02 | 3.02 | 89 | 1008.2 |
| 20260505202000 | 13 | 105 | 4.8 | 6.4 | 0.00 | 3.02 | 3.02 | 89 | 1008.3 |
| 20260505201457 | 13 | 57 | 1.6 | 9.7 | 0.00 | 3.02 | 3.02 | 89 | 1008.1 |
| 20260505200955 | 13 | 128 | 0.0 | 4.8 | 0.05 | 3.02 | 3.02 | 91 | 1007.9 |
| 20260505200453 | 13 | 70 | 1.6 | 6.4 | 0.05 | 3.02 | 3.02 | 90 | 1008.0 |
| 20260505195948 | 13 | 96 | 3.2 | 6.4 | 0.00 | 3.02 | 3.02 | 90 | 1008.2 |
| 20260505195445 | 13 | 112 | 1.6 | 8.0 | 0.00 | 3.02 | 3.02 | 91 | 1008.1 |
| 20260505194943 | 13 | 28 | 1.6 | 9.7 | 0.00 | 3.02 | 3.02 | 90 | 1008.8 |
| 20260505194440 | 13 | 29 | 1.6 | 6.4 | 0.00 | 3.02 | 3.02 | 91 | 1008.5 |
| 20260505193940 | 13 | 315 | 3.2 | 6.4 | 0.00 | 3.02 | 3.02 | 91 | 1008.4 |
| 20260505193438 | 13 | 17 | 3.2 | 4.8 | 0.00 | 3.02 | 3.02 | 91 | 1008.2 |
| 20260505192935 | 13 | 18 | 3.2 | 6.4 | 0.00 | 3.02 | 3.02 | 91 | 1007.9 |
| 20260505192433 | 13 | 321 | 1.6 | 9.7 | 0.00 | 3.02 | 3.02 | 91 | 1007.1 |
| 20260505191931 | 13 | 96 | 6.4 | 9.7 | 0.00 | 3.02 | 3.02 | 92 | 1007.4 |
| 20260505191430 | 13 | 305 | 3.2 | 9.7 | 0.00 | 3.02 | 3.02 | 92 | 1008.1 |
| 20260505190926 | 13 | 195 | 3.2 | 4.8 | 0.00 | 3.02 | 3.02 | 92 | 1007.8 |
| 20260505190421 | 13 | 41 | 3.2 | 8.0 | 0.00 | 3.02 | 3.02 | 91 | 1007.8 |
| 20260505185916 | 13 | 311 | 3.2 | 6.4 | 0.00 | 3.02 | 3.02 | 91 | 1007.9 |
| 20260505185414 | 13 | 8 | 1.6 | 4.8 | 0.05 | 3.02 | 3.02 | 92 | 1007.9 |
| 20260505184910 | 14 | 33 | 1.6 | 8.0 | 0.05 | 3.02 | 3.02 | 91 | 1007.9 |
| 20260505184407 | 14 | 346 | 0.0 | 9.7 | 0.00 | 3.02 | 3.02 | 91 | 1007.4 |
| 20260505183904 | 14 | 356 | 3.2 | 9.7 | 0.05 | 3.02 | 3.02 | 90 | 1007.5 |
| 20260505183401 | 14 | 358 | 3.2 | 8.0 | 0.05 | 3.02 | 3.02 | 90 | 1007.5 |
| 20260505182857 | 15 | 9 | 8.0 | 17.7 | 0.00 | 3.00 | 3.00 | 89 | 1007.5 |
| 20260505182355 | 15 | 24 | 4.8 | 17.7 | 0.00 | 3.00 | 3.00 | 88 | 1007.5 |
| 20260505181851 | 16 | 97 | 4.8 | 8.0 | 0.00 | 3.00 | 3.00 | 88 | 1007.4 |
| 20260505181348 | 16 | 350 | 3.2 | 9.7 | 0.00 | 3.00 | 3.00 | 88 | 1007.2 |
| 20260505180845 | 17 | 71 | 4.8 | 6.4 | 0.00 | 3.00 | 3.00 | 91 | 1007.4 |
| 20260505180341 | 17 | 257 | 0.0 | 4.8 | 0.00 | 3.00 | 3.00 | 91 | 1007.1 |
| 20260505175838 | 17 | 298 | 1.6 | 3.2 | 0.00 | 3.00 | 3.00 | 91 | 1007.1 |
| 20260505175334 | 17 | 44 | 0.0 | 4.8 | 0.05 | 3.00 | 3.00 | 90 | 1006.8 |
| 20260505174831 | 17 | 293 | 3.2 | 6.4 | 0.05 | 3.00 | 3.00 | 90 | 1007.1 |
| 20260505174329 | 18 | 19 | 0.0 | 4.8 | 0.05 | 3.00 | 3.00 | 89 | 1007.3 |
| 20260505173824 | 18 | 65 | 4.8 | 6.4 | 0.00 | 3.00 | 3.00 | 89 | 1007.1 |
| 20260505173321 | 18 | 94 | 0.0 | 3.2 | 0.00 | 3.00 | 3.00 | 88 | 1007.1 |
| 20260505172818 | 18 | 87 | 1.6 | 3.2 | 0.00 | 3.00 | 3.00 | 88 | 1007.0 |
| 20260505172315 | 18 | 341 | 0.0 | 4.8 | 0.00 | 3.00 | 3.00 | 87 | 1007.1 |
| 20260505171810 | 18 | 49 | 1.6 | 3.2 | 0.00 | 3.00 | 3.00 | 87 | 1007.1 |
| 20260505171307 | 18 | 123 | 0.0 | 4.8 | 0.00 | 3.00 | 3.00 | 87 | 1007.0 |
| 20260505170758 | 18 | 80 | 3.2 | 6.4 | 0.00 | 3.00 | 3.00 | 87 | 1006.7 |
| 20260505170255 | 18 | 81 | 4.8 | 6.4 | 0.00 | 3.00 | 3.00 | 87 | 1006.8 |
| 20260505165750 | 19 | 43 | 3.2 | 3.2 | 0.00 | 3.00 | 3.00 | 86 | 1007.2 |
| 20260505165246 | 19 | 338 | 0.0 | 3.2 | 0.00 | 3.00 | 3.00 | 87 | 1007.1 |
| 20260505164742 | 18 | 102 | 3.2 | 8.0 | 0.00 | 3.00 | 3.00 | 86 | 1007.3 |
| 20260505164239 | 19 | 157 | 0.0 | 6.4 | 0.00 | 3.00 | 3.00 | 86 | 1007.0 |
| 20260505163737 | 19 | 44 | 0.0 | 3.2 | 0.00 | 3.00 | 3.00 | 86 | 1007.0 |
| 20260505163236 | 19 | 9 | 0.0 | 3.2 | 0.00 | 3.00 | 3.00 | 86 | 1007.2 |
| 20260505162732 | 19 | 257 | 3.2 | 3.2 | 0.00 | 3.00 | 3.00 | 85 | 1007.2 |
| 20260505162229 | 19 | 80 | 1.6 | 8.0 | 0.00 | 3.00 | 3.00 | 86 | 1007.1 |
| 20260505161726 | 18 | 155 | 1.6 | 6.4 | 0.00 | 3.00 | 3.00 | 86 | 1006.8 |
| 20260505161224 | 18 | 118 | 1.6 | 8.0 | 0.00 | 3.00 | 3.00 | 86 | 1006.9 |
| 20260505160721 | 18 | 114 | 6.4 | 9.7 | 0.00 | 3.00 | 3.00 | 86 | 1006.7 |
| 20260505160219 | 18 | 106 | 6.4 | 9.7 | 0.00 | 3.00 | 3.00 | 87 | 1006.7 |
| 20260505153158 | 18 | 234 | 1.6 | 8.0 | 0.00 | 3.00 | 3.00 | 87 | 1006.6 |
| 20260505152654 | 18 | 167 | 4.8 | 11.3 | 0.00 | 3.00 | 3.00 | 87 | 1006.3 |
| 20260505152150 | 18 | 153 | 4.8 | 8.0 | 0.00 | 3.00 | 3.00 | 88 | 1006.6 |
| 20260505151646 | 18 | 154 | 4.8 | 6.4 | 0.00 | 3.00 | 3.00 | 88 | 1006.6 |
| 20260505151143 | 18 | 113 | 3.2 | 11.3 | 0.00 | 3.00 | 3.00 | 87 | 1006.6 |
| 20260505150639 | 18 | 89 | 6.4 | 6.4 | 0.00 | 3.00 | 3.00 | 88 | 1006.9 |
| 20260505150137 | 18 | 153 | 4.8 | 9.7 | 0.00 | 3.00 | 3.00 | 88 | 1006.5 |
| 20260505140605 | 17 | 62 | 4.8 | 6.4 | 0.00 | 3.00 | 3.00 | 88 | 1007.2 |
| 20260505125019 | 16 | 130 | 1.6 | 9.7 | 0.00 | 3.00 | 3.00 | 93 | 1007.2 |
| 20260505124515 | 16 | 286 | 1.6 | 6.4 | 0.00 | 3.00 | 3.00 | 93 | 1007.2 |
| 20260505124012 | 16 | 178 | 3.2 | 4.8 | 0.00 | 3.00 | 3.00 | 93 | 1006.9 |
| 20260505123508 | 16 | 148 | 0.0 | 6.4 | 0.00 | 3.00 | 3.00 | 93 | 1006.8 |
| 20260505123004 | 16 | 149 | 3.2 | 9.7 | 0.00 | 3.00 | 3.00 | 93 | 1006.6 |
| 20260505122501 | 16 | 131 | 4.8 | 9.7 | 0.00 | 3.00 | 3.00 | 93 | 1006.7 |
| 20260505121958 | 16 | 352 | 3.2 | 6.4 | 0.00 | 3.00 | 3.00 | 93 | 1006.7 |
| 20260505121455 | 16 | 127 | 6.4 | 6.4 | 0.00 | 3.00 | 3.00 | 94 | 1006.9 |
| 20260505120951 | 15 | 50 | 0.0 | 8.0 | 0.00 | 3.00 | 3.00 | 94 | 1006.7 |
| 20260505120448 | 15 | 331 | 3.2 | 8.0 | 0.00 | 3.00 | 3.00 | 94 | 1006.6 |
| 20260505115946 | 15 | 140 | 6.4 | 6.4 | 0.00 | 3.00 | 3.00 | 94 | 1006.7 |
| 20260505115443 | 15 | 178 | 6.4 | 9.7 | 0.00 | 3.00 | 3.00 | 94 | 1006.3 |
| 20260505114942 | 15 | 150 | 4.8 | 6.4 | 0.00 | 3.00 | 3.00 | 94 | 1006.7 |
| 20260505114437 | 15 | 153 | 3.2 | 8.0 | 0.00 | 3.00 | 3.00 | 94 | 1006.6 |
| 20260505113934 | 15 | 148 | 3.2 | 6.4 | 0.00 | 3.00 | 3.00 | 94 | 1006.5 |
| 20260505113430 | 15 | 89 | 4.8 | 6.4 | 0.00 | 3.00 | 3.00 | 94 | 1006.5 |
| 20260505112926 | 15 | 155 | 3.2 | 6.4 | 0.00 | 3.00 | 3.00 | 94 | 1006.5 |
| 20260505112424 | 15 | 144 | 4.8 | 6.4 | 0.00 | 3.00 | 3.00 | 94 | 1006.4 |
| 20260505111920 | 15 | 133 | 4.8 | 8.0 | 0.00 | 3.00 | 3.00 | 94 | 1006.3 |
| 20260505111415 | 15 | 138 | 6.4 | 8.0 | 0.00 | 3.00 | 3.00 | 94 | 1006.4 |
| 20260505110911 | 15 | 129 | 6.4 | 8.0 | 0.00 | 3.00 | 3.00 | 94 | 1006.6 |
| 20260505110408 | 15 | 130 | 4.8 | 6.4 | 0.00 | 3.00 | 3.00 | 94 | 1006.5 |
| 20260505101839 | 15 | 78 | 4.8 | 8.0 | 0.00 | 3.00 | 3.00 | 95 | 1007.1 |
| 20260505101334 | 15 | 64 | 4.8 | 9.7 | 0.00 | 3.00 | 3.00 | 96 | 1007.2 |
| 20260505100830 | 15 | 116 | 6.4 | 8.0 | 0.00 | 3.00 | 3.00 | 96 | 1007.4 |
| 20260505100327 | 15 | 36 | 3.2 | 6.4 | 0.05 | 3.00 | 3.00 | 96 | 1007.5 |
| 20260505095822 | 15 | 73 | 4.8 | 6.4 | 0.00 | 2.97 | 2.97 | 96 | 1007.4 |
| 20260505095320 | 15 | 114 | 1.6 | 6.4 | 0.00 | 2.97 | 2.97 | 96 | 1007.2 |
| 20260505094816 | 15 | 59 | 3.2 | 4.8 | 0.00 | 2.97 | 2.97 | 96 | 1007.3 |
| 20260505094313 | 15 | 213 | 1.6 | 8.0 | 0.05 | 2.97 | 2.97 | 96 | 1007.5 |
| 20260505093814 | 15 | 146 | 0.0 | 3.2 | 0.13 | 2.97 | 2.97 | 96 | 1007.5 |
| 20260505093312 | 15 | 102 | 0.0 | 6.4 | 0.13 | 2.97 | 2.97 | 95 | 1007.6 |
| 20260505092808 | 15 | 262 | 0.0 | 6.4 | 0.05 | 2.95 | 2.95 | 95 | 1007.3 |
| 20260505092307 | 15 | 262 | 0.0 | 6.4 | 0.05 | 2.95 | 2.95 | 95 | 1007.3 |
| 20260505091804 | 15 | 140 | 4.8 | 4.8 | 0.05 | 2.92 | 2.92 | 95 | 1007.8 |
| 20260505091302 | 15 | 224 | 0.0 | 3.2 | 0.05 | 2.92 | 2.92 | 95 | 1007.5 |
| 20260505090759 | 15 | 77 | 0.0 | 3.2 | 0.05 | 2.92 | 2.92 | 95 | 1007.5 |
| 20260505090257 | 15 | 22 | 1.6 | 6.4 | 0.53 | 2.92 | 2.92 | 95 | 1007.4 |
| 20260505085754 | 15 | 179 | 3.2 | 8.0 | 1.02 | 2.90 | 2.90 | 95 | 1007.3 |
| 20260505085252 | 15 | 91 | 1.6 | 3.2 | 0.53 | 2.82 | 2.82 | 95 | 1007.6 |
| 20260505084749 | 15 | 310 | 3.2 | 4.8 | 0.00 | 2.72 | 2.72 | 95 | 1008.0 |
| 20260505084244 | 15 | 351 | 3.2 | 4.8 | 0.05 | 2.72 | 2.72 | 95 | 1007.8 |
| 20260505083740 | 15 | 129 | 3.2 | 4.8 | 0.05 | 2.72 | 2.72 | 95 | 1006.9 |
| 20260505083237 | 15 | 151 | 3.2 | 4.8 | 0.30 | 2.72 | 2.72 | 95 | 1007.4 |
| 20260505082732 | 15 | 188 | 3.2 | 3.2 | 1.27 | 2.62 | 2.62 | 94 | 1007.4 |
| 20260505082230 | 15 | 188 | 3.2 | 3.2 | 1.27 | 2.62 | 2.62 | 94 | 1007.4 |
| 20260505081726 | 15 | 70 | 3.2 | 4.8 | 1.93 | 2.54 | 2.54 | 94 | 1006.8 |
| 20260505081223 | 15 | 81 | 0.0 | 6.4 | 1.85 | 2.39 | 2.39 | 94 | 1006.8 |
| 20260505080720 | 15 | 93 | 0.0 | 4.8 | 1.37 | 2.21 | 2.21 | 94 | 1007.1 |
| 20260505080216 | 15 | 295 | 1.6 | 4.8 | 1.50 | 2.08 | 2.08 | 94 | 1007.2 |
| 20260505075712 | 15 | 120 | 0.0 | 4.8 | 1.75 | 1.83 | 1.83 | 93 | 1007.1 |
| 20260505075209 | 15 | 350 | 3.2 | 6.4 | 1.63 | 1.75 | 1.75 | 93 | 1007.6 |
| 20260505074706 | 16 | 331 | 3.2 | 14.5 | 2.03 | 1.63 | 1.63 | 92 | 1007.9 |
| 20260505074203 | 16 | 323 | 3.2 | 9.7 | 2.21 | 1.47 | 1.47 | 92 | 1007.8 |
| 20260505073701 | 16 | 106 | 4.8 | 12.9 | 1.85 | 1.30 | 1.30 | 91 | 1006.5 |
| 20260505073158 | 16 | 312 | 8.0 | 16.1 | 0.43 | 0.99 | 0.99 | 88 | 1007.1 |
| 20260505072654 | 16 | 312 | 8.0 | 16.1 | 0.43 | 0.99 | 0.99 | 88 | 1007.1 |
| 20260505072151 | 16 | 39 | 4.8 | 6.4 | 0.13 | 0.94 | 0.94 | 86 | 1005.7 |
| 20260505071646 | 16 | 12 | 3.2 | 3.2 | 0.43 | 0.91 | 0.91 | 86 | 1006.2 |
| 20260505071144 | 16 | 256 | 0.0 | 11.3 | 0.84 | 0.91 | 0.91 | 86 | 1005.5 |
| 20260505070641 | 16 | 66 | 1.6 | 1.6 | 0.66 | 0.76 | 0.76 | 89 | 1006.6 |
| 20260505070137 | 16 | 145 | 3.2 | 6.4 | 0.97 | 0.74 | 0.74 | 88 | 1006.1 |
| 20260505065633 | 16 | 145 | 3.2 | 6.4 | 0.97 | 0.74 | 0.74 | 88 | 1006.1 |
| 20260505065130 | 16 | 61 | 4.8 | 8.0 | 3.12 | 0.66 | 0.66 | 87 | 1006.6 |
| 20260505064627 | 17 | 109 | 6.4 | 11.3 | 2.69 | 0.56 | 0.56 | 86 | 1006.4 |
| 20260505064125 | 17 | 150 | 1.6 | 4.8 | 0.00 | 0.13 | 0.13 | 84 | 1007.3 |
| 20260505063623 | 17 | 101 | 1.6 | 4.8 | 0.18 | 0.13 | 0.13 | 81 | 1008.0 |
| 20260505063118 | 18 | 117 | 4.8 | 8.0 | 0.18 | 0.10 | 0.10 | 77 | 1006.7 |
| 20260505062615 | 18 | 117 | 4.8 | 8.0 | 0.18 | 0.10 | 0.10 | 77 | 1006.7 |
| 20260505062112 | 18 | 122 | 3.2 | 9.7 | 0.13 | 0.08 | 0.08 | 77 | 1006.6 |
| 20260505061609 | 18 | 111 | 4.8 | 6.4 | 0.05 | 0.05 | 0.05 | 77 | 1007.3 |
| 20260505061108 | 18 | 138 | 3.2 | 8.0 | 0.23 | 0.05 | 0.05 | 74 | 1007.6 |
| 20260505060605 | 18 | 69 | 0.0 | 3.2 | 0.23 | 0.05 | 0.05 | 72 | 1007.3 |
| 20260505055556 | 18 | 75 | 1.6 | 3.2 | 0.00 | 0.00 | 0.00 | 70 | 1007.9 |
| 20260505055053 | 18 | 175 | 1.6 | 6.4 | 0.00 | 0.00 | 0.00 | 69 | 1008.0 |
| 20260505054551 | 18 | 139 | 1.6 | 3.2 | 0.00 | 0.00 | 0.00 | 69 | 1007.7 |
| 20260505054049 | 18 | 133 | 4.8 | 6.4 | 0.00 | 0.00 | 0.00 | 69 | 1007.9 |
| 20260505053545 | 18 | 205 | 3.2 | 6.4 | 0.00 | 0.00 | 0.00 | 69 | 1008.0 |
| 20260505053042 | 18 | 148 | 3.2 | 4.8 | 0.00 | 0.00 | 0.00 | 69 | 1007.8 |
| 20260505052539 | 18 | 323 | 0.0 | 6.4 | 0.00 | 0.00 | 0.00 | 69 | 1007.8 |
| 20260505052037 | 18 | 325 | 0.0 | 4.8 | 0.00 | 0.00 | 0.00 | 69 | 1007.5 |
| 20260505051533 | 18 | 240 | 0.0 | 8.0 | 0.00 | 0.00 | 0.00 | 69 | 1007.6 |
| 20260505051032 | 18 | 111 | 3.2 | 6.4 | 0.00 | 0.00 | 0.00 | 69 | 1007.4 |
| 20260505050529 | 18 | 111 | 3.2 | 6.4 | 0.00 | 0.00 | 0.00 | 69 | 1007.4 |
| 20260505041457 | 18 | 103 | 0.0 | 6.4 | 0.00 | 0.00 | 0.00 | 72 | 1007.9 |
| 20260505040954 | 18 | 109 | 3.2 | 6.4 | 0.00 | 0.00 | 0.00 | 72 | 1007.9 |
| 20260505040452 | 18 | 110 | 1.6 | 3.2 | 0.00 | 0.00 | 0.00 | 71 | 1008.0 |
| 20260505035949 | 18 | 127 | 0.0 | 4.8 | 0.00 | 0.00 | 0.00 | 71 | 1008.2 |
| 20260505035444 | 18 | 106 | 0.0 | 3.2 | 0.00 | 0.00 | 0.00 | 71 | 1008.1 |
| 20260505034942 | 18 | 135 | 0.0 | 3.2 | 0.00 | 0.00 | 0.00 | 70 | 1008.0 |
| 20260505034438 | 18 | 88 | 3.2 | 6.4 | 0.00 | 0.00 | 0.00 | 70 | 1008.2 |
| 20260505033936 | 18 | 98 | 1.6 | 4.8 | 0.00 | 0.00 | 0.00 | 69 | 1008.1 |
| 20260505033432 | 19 | 68 | 1.6 | 3.2 | 0.00 | 0.00 | 0.00 | 69 | 1008.0 |
| 20260505032930 | 19 | 131 | 1.6 | 6.4 | 0.00 | 0.00 | 0.00 | 69 | 1008.3 |
| 20260505032427 | 19 | 122 | 3.2 | 4.8 | 0.00 | 0.00 | 0.00 | 69 | 1008.0 |
| 20260505031923 | 19 | 63 | 1.6 | 8.0 | 0.00 | 0.00 | 0.00 | 69 | 1008.4 |
| 20260505031421 | 19 | 129 | 3.2 | 4.8 | 0.00 | 0.00 | 0.00 | 69 | 1008.3 |
| 20260505030918 | 19 | 49 | 0.0 | 4.8 | 0.00 | 0.00 | 0.00 | 69 | 1008.3 |
| 20260505030413 | 19 | 74 | 3.2 | 3.2 | 0.00 | 0.00 | 0.00 | 69 | 1008.2 |
| 20260505025909 | 19 | 135 | 3.2 | 3.2 | 0.00 | 0.00 | 0.00 | 69 | 1008.5 |
| 20260505025407 | 19 | 112 | 3.2 | 6.4 | 0.00 | 0.00 | 0.00 | 69 | 1008.8 |
| 20260505024905 | 18 | 122 | 3.2 | 3.2 | 0.00 | 0.00 | 0.00 | 70 | 1008.4 |
| 20260505024403 | 18 | 120 | 3.2 | 3.2 | 0.00 | 0.00 | 0.00 | 69 | 1008.8 |
| 20260505023859 | 18 | 110 | 0.0 | 4.8 | 0.00 | 0.00 | 0.00 | 69 | 1008.3 |
| 20260505023356 | 19 | 114 | 3.2 | 3.2 | 0.00 | 0.00 | 0.00 | 69 | 1008.4 |
| 20260505022853 | 19 | 102 | 3.2 | 4.8 | 0.00 | 0.00 | 0.00 | 68 | 1008.1 |
| 20260505022350 | 19 | 93 | 1.6 | 3.2 | 0.00 | 0.00 | 0.00 | 68 | 1008.1 |
| 20260505021848 | 19 | 160 | 0.0 | 4.8 | 0.00 | 0.00 | 0.00 | 68 | 1008.2 |
| 20260505021344 | 19 | 170 | 1.6 | 4.8 | 0.00 | 0.00 | 0.00 | 67 | 1007.9 |
| 20260505020840 | 20 | 154 | 1.6 | 3.2 | 0.00 | 0.00 | 0.00 | 67 | 1008.0 |
| 20260505020335 | 20 | 97 | 1.6 | 3.2 | 0.00 | 0.00 | 0.00 | 66 | 1007.9 |
| 20260505015833 | 20 | 150 | 1.6 | 3.2 | 0.00 | 0.00 | 0.00 | 65 | 1007.6 |
| 20260505015330 | 20 | 103 | 1.6 | 3.2 | 0.00 | 0.00 | 0.00 | 65 | 1007.8 |
| 20260505014827 | 20 | 130 | 0.0 | 3.2 | 0.00 | 0.00 | 0.00 | 64 | 1007.5 |
| 20260505014324 | 20 | 129 | 1.6 | 4.8 | 0.00 | 0.00 | 0.00 | 64 | 1007.6 |
| 20260505013820 | 20 | 95 | 1.6 | 4.8 | 0.00 | 0.00 | 0.00 | 64 | 1007.6 |
| 20260505013318 | 20 | 136 | 1.6 | 4.8 | 0.00 | 0.00 | 0.00 | 64 | 1007.6 |
| 20260505012816 | 20 | 133 | 3.2 | 6.4 | 0.00 | 0.00 | 0.00 | 63 | 1007.6 |
| 20260505012314 | 20 | 97 | 1.6 | 3.2 | 0.00 | 0.00 | 0.00 | 62 | 1007.5 |
| 20260505011809 | 20 | 209 | 4.8 | 4.8 | 0.00 | 0.00 | 0.00 | 62 | 1007.6 |
| 20260505011307 | 21 | 108 | 3.2 | 3.2 | 0.00 | 0.00 | 0.00 | 62 | 1007.4 |
| 20260505010802 | 21 | 131 | 1.6 | 4.8 | 0.00 | 0.00 | 0.00 | 61 | 1007.2 |
| 20260505010258 | 21 | 135 | 3.2 | 3.2 | 0.00 | 0.00 | 0.00 | 60 | 1007.1 |
| 20260505005754 | 21 | 118 | 3.2 | 3.2 | 0.00 | 0.00 | 0.00 | 60 | 1007.1 |
| 20260505005252 | 21 | 132 | 3.2 | 6.4 | 0.00 | 0.00 | 0.00 | 59 | 1007.1 |
| 20260505004749 | 22 | 203 | 6.4 | 6.4 | 0.00 | 0.00 | 0.00 | 58 | 1007.1 |
| 20260505004245 | 22 | 143 | 3.2 | 6.4 | 0.00 | 0.00 | 0.00 | 57 | 1007.0 |
| 20260505003742 | 22 | 152 | 3.2 | 9.7 | 0.00 | 0.00 | 0.00 | 57 | 1007.2 |
| 20260505003240 | 22 | 136 | 0.0 | 11.3 | 0.00 | 0.00 | 0.00 | 57 | 1007.0 |
| 20260505002736 | 22 | 219 | 6.4 | 9.7 | 0.00 | 0.00 | 0.00 | 57 | 1007.3 |